User: anonymous   Login
Location: Bushey
(51.6333°N, 0.3667°W)
Time: 04:49:20
(UTC+00:00)
Language:

Cosmos 1898 Rocket - Orbit

View from above orbital plane
View from above orbital plane
View from above satellite
View from above satellite

Ground track
Ground track

The orbit data is extracted from the following two-line orbital elements,

1 18586U 87098B   21125.46661866  .00000035  00000-0  20879-4 0  9992
2 18586  74.0072 203.3782 0022170 284.2961  75.5731 14.36947776750766
Epoch (UTC): 05 May 2021 11:11:55
Eccentricity: 0.0022170
inclination: 74.0072°
perigee height: 753 km
apogee height: 784 km
right ascension of ascending node: 203.3782°
argument of perigee: 284.2961°
revolutions per day: 14.36947776
mean anomaly at epoch: 75.5731°
orbit number at epoch: 75076

The dashed part of the orbit path shows where the satellite is in the earth's shadow,  

DLR